www.pogodaiklimat.ru

Погода и климат >> Архив погоды >> Турция >> Акхисар


ПОГОДА в Акхисаре

  • Прогноз погоды в Акхисаре
  • Монитор погоды в Акхисаре

АРХИВ ПОГОДЫ в Акхисаре

Время (UTC), дата Ветер
(напр.,м/с)
 
Видим.   Явления Облачность Т
(С)
Тd
(С)
f
(%)
Тe
(С)
Тes
(С)
Комфортность P
(гПа)
Po
(гПа)
Тmin
(С)
Tmax
(С)
R
(мм)
R24
(мм)
S
(см)
07 12.08 С 1 20 км ясно +29.0 +15.1 43 +32 +43 душно 1008.6 998.2
08 12.08 С 2 20 км ясно +30.8 +14.8 38 +33 +48 душно 1008.4 998.0
09 12.08 С 3
{4}
20 км ясно +32.8 +14.8 34 +35 +50 душно 1007.6 997.3
10 12.08 СЗ 2 20 км ясно +35.5 +14.6 29 +37 +55 опасность
солнечного
удара
1006.8 996.5
11 12.08 С 2 20 км ясно +38.0 +13.2 23 +38 +57 опасность
солнечного
удара
1005.9 995.7
12 12.08 СЗ 2
{6}
20 км ясно +38.2 +14.7 25 +39 +55 опасность
солнечного
удара
1005.2 995.0
13 12.08 С 2 20 км ясно +38.6 +14.4 24 +39 +50 душно 1004.6 994.4
14 12.08 С 2 20 км ясно +38.2 +15.3 26 +40 +46 очень
душно
1004.4 994.1
15 12.08 С 2
{6}
20 км ясно +37.4 +14.6 26 +38 +42 душно 1004.2 993.9
16 12.08 С 3 20 км ясно +33.9 +12.2 27 +34 +35 очень
жарко
1004.4 994.0
17 12.08 С 2 20 км ясно +31.4 +11.6 30 +32 +32 жарко 1004.9 994.5
18 12.08 С 2
{8}
20 км ясно +30.0 +11.4 32 +31 +31 жарко 1005.2 994.8 +39.3
21 12.08 С 1
{8}
20 км ясно +26.8 +12.0 40 +28 +28 жарко 1006.5 996.2
00 13.08 штиль 0
{8}
20 км ясно +24.1 +13.0 50 +26 +26 жарко 1006.4 996.1
03 13.08 штиль 0
{2}
20 км ясно +22.0 +13.1 57 +25 +25 комфорт 1006.1 995.8
06 13.08 СЗ 1
{2}
20 км ясно +26.2 +15.0 50 +29 +36 жарко 1006.9 996.5 +21.1
07 13.08 штиль 0 20 км ясно +29.0 +15.1 43 +32 +45 душно 1006.4 996.1
08 13.08 СЗ 2 20 км ясно +31.3 +13.9 35 +33 +47 жарко 1006.0 995.7
09 13.08 СЗ 2
{6}
20 км ясно +33.0 +13.5 31 +34 +51 опасность
солнечного
удара
1005.4 995.1
10 13.08 СЗ 2 20 км ясно +34.4 +14.2 30 +36 +54 опасность
солнечного
удара
1004.8 994.5
11 13.08 СЗ 2 20 км ясно +36.5 +13.8 26 +37 +56 опасность
солнечного
удара
1004.3 994.0
12 13.08 СЗ 2
{6}
20 км ясно +37.9 +13.8 24 +38 +54 опасность
солнечного
удара
1003.6 993.4
13 13.08 С 2 20 км ясно +39.2 +12.8 21 +39 +50 очень
жарко
1003.1 992.9
14 13.08 С 3 20 км ясно +38.4 +13.6 23 +39 +45 очень
душно
1003.0 992.8
15 13.08 С 3
{5}
20 км ясно +36.6 +15.1 28 +38 +41 очень
душно
1003.2 992.9
16 13.08 С 3 20 км ясно +34.4 +13.7 29 +35 +36 очень
жарко
1003.4 993.1
17 13.08 С 3 20 км ясно +31.6 +13.3 33 +33 +33 жарко 1004.1 993.7
18 13.08 С 2
{7}
20 км ясно +29.6 +12.0 34 +30 +30 жарко 1004.7 994.3 +39.3
21 13.08 С 2
{5}
20 км ясно +26.2 +15.9 53 +29 +29 жарко 1005.6 995.3
00 14.08 штиль 0
{5}
20 км ясно +23.9 +16.7 64 +27 +27 жарко 1005.5 995.2
03 14.08 штиль 0
{1}
20 км ясно +22.5 +16.8 70 +27 +27 душно 1005.8 995.5
06 14.08 штиль 0
{2}
20 км ясно +26.3 +17.2 57 +30 +38 душно 1006.0 995.6 +22.1
07 14.08 СЗ 1 20 км ясно +27.8 +17.4 53 +32 +44 душно 1005.8 995.4
08 14.08 штиль 0 20 км ясно +29.7 +17.2 47 +34 +52 опасность
солнечного
удара
1005.2 994.9
09 14.08 С 1
{2}
20 км ясно +32.1 +15.9 38 +35 +56 опасность
солнечного
удара
1004.5 994.2
10 14.08 штиль 0 20 км ясно +34.3 +16.1 34 +37 +61 опасность
солнечного
удара
1003.7 993.4
11 14.08 штиль 0 20 км ясно +36.4 +16.0 30 +38 +62 опасность
солнечного
удара
1003.2 992.9
12 14.08 СЗ 1
{2}
20 км ясно +38.2 +15.3 26 +40 +58 опасность
солнечного
удара
1002.5 992.3
13 14.08 С 1 20 км ясно +39.6 +15.2 24 +41 +54 опасность
перегрева
1002.1 991.9
14 14.08 С 2 20 км 3/3 1000 м
[Cu hum]
+39.0 +16.5 27 +41 +46 опасность
перегрева
1001.8 991.6
15 14.08 С 2
{4}
20 км 4/4 1200 м
[Cu hum]
+38.4 +16.6 28 +41 +43 опасность
перегрева
1001.7 991.5
16 14.08 С 2 20 км 4/4 1000 м
[Cu hum]
+36.0 +17.1 33 +39 +39 очень
душно
1001.7 991.4
17 14.08 С 1 20 км 5/5 1000 м
[Cu med, cong]
+33.1 +17.6 40 +37 +37 очень
душно
1002.2 991.9
18 14.08 С 2
{5}
20 км 8/3 1200 м
[Cu med, cong Ac und]
+31.4 +18.4 46 +36 +36 очень
душно
1003.0 992.7 +39.6
21 14.08 С 2
{4}
15 км в посл. час ливневой дождь 5/5 1200 м
[Cu med, cong]
+28.3 +18.2 54 +33 +33 очень
душно
1003.7 993.4
00 15.08 В 1
{4}
20 км {ливн. осадки} 3/3 1200 м
[Cu hum]
+26.1 +16.4 55 +30 +30 душно 1004.3 994.1 0.0
03 15.08 штиль 0
{2}
20 км 4/4 1200 м
[Cu med, cong]
+24.6 +17.9 66 +29 +29 душно 1004.4 994.2
06 15.08 СЗ 1
{3}
20 км 1/1 1050 м
[Cu hum]
+27.1 +19.0 61 +32 +38 очень
душно
1005.1 994.8 +23.8 0.0
07 15.08 СЗ 2 20 км ясно +28.7 +18.8 55 +34 +44 очень
душно
1005.3 995.0
08 15.08 С 2 20 км ясно +30.4 +18.2 48 +35 +49 очень
душно
1005.4 995.1
09 15.08 СЗ 2
{6}
20 км ясно +31.2 +17.8 45 +35 +52 опасность
солнечного
удара
1005.0 994.7
10 15.08 С 1 20 км ясно +33.2 +16.9 38 +36 +57 опасность
солнечного
удара
1004.9 994.6
11 15.08 З 1 20 км 3/3 1000 м
[Cu med, cong]
+34.9 +17.5 36 +38 +53 опасность
солнечного
удара
1004.5 994.3
12 15.08 СЗ 1
{6}
20 км ясно +35.5 +17.6 35 +39 +58 опасность
солнечного
удара
1004.3 994.0
13 15.08 С 1 20 км ясно +36.5 +17.1 32 +39 +52 опасность
солнечного
удара
1003.5 993.3
14 15.08 С 1 20 км 3/3 1000 м
[Cu med, cong]
+35.9 +18.0 35 +40 +45 очень
душно
1003.5 993.2
15 15.08 СЗ 2
{4}
20 км 3/3 1050 м
[Cu med, cong]
+34.8 +18.3 38 +39 +41 очень
душно
1003.5 993.2
16 15.08 С 2 20 км 3/3 1000 м
[Cu hum]
+33.4 +17.9 40 +38 +38 очень
душно
1004.0 993.7
17 15.08 С 2 20 км 3/3 1000 м
[Cu hum]
+30.9 +18.6 48 +36 +36 очень
душно
1004.9 994.5
18 15.08 С 1
{6}
20 км 4/3 1050 м
[Cu med, cong Ac trans]
+29.1 +18.9 54 +34 +34 очень
душно
1006.0 995.6 +36.9
21 15.08 С 1
{4}
20 км 4/0
[Ac trans]
+26.5 +19.0 63 +32 +32 очень
душно
1007.6 997.2
00 16.08 С 1
{4}
20 км 4/0
[Ac trans]
+24.8 +19.0 70 +30 +30 душно 1007.4 997.1
03 16.08 С 1
{3}
20 км 8/3 1200 м
[Cu med, cong Ac und]
+24.4 +18.2 68 +29 +29 душно 1008.2 997.9
06 16.08 С 2
{4}
20 км 3/3 1050 м
[Cu med, cong]
+27.1 +19.0 61 +32 +36 очень
душно
1009.0 998.6 +24.0
07 16.08 С 1 20 км 3/3 1000 м
[Cu hum]
+29.0 +18.8 54 +34 +42 очень
душно
1009.0 998.6
08 16.08 С 2 20 км 3/3 1000 м
[Cu hum]
+30.2 +18.7 50 +35 +45 очень
душно
1008.9 998.5
09 16.08 С 2
{5}
20 км 1/1 1200 м
[Cu hum]
+31.2 +17.8 45 +35 +50 очень
душно
1008.8 998.4
10 16.08 СЗ 2 20 км 1/1 1000 м
[Cu hum]
+32.1 +18.3 44 +37 +53 опасность
солнечного
удара
1008.5 998.1
11 16.08 СЗ 1 20 км 1/1 1000 м
[Cu hum]
+34.1 +16.8 36 +37 +55 опасность
солнечного
удара
1008.0 997.7
12 16.08 СЗ 2
{5}
20 км 1/1 1200 м
[Cu hum]
+34.3 +15.6 33 +36 +51 опасность
солнечного
удара
1007.7 997.4
13 16.08 СЗ 2 20 км 1/1 1000 м
[Cu hum]
+34.8 +15.1 31 +37 +46 очень
душно
1007.3 997.0
14 16.08 С 2 20 км 1/1 1000 м
[Cu hum]
+34.6 +15.9 33 +37 +43 очень
душно
1007.3 997.0
15 16.08 С 2
{5}
20 км 1/1 1200 м
[Cu hum]
+33.9 +15.7 34 +36 +39 душно 1007.4 997.1
16 16.08 С 2 20 км 1/1 1000 м
[Cu hum]
+32.1 +15.9 38 +35 +35 очень
душно
1007.6 997.2
17 16.08 С 2 20 км 1/1 1000 м
[Cu hum]
+29.5 +17.0 47 +33 +33 душно 1008.0 997.6
18 16.08 С 2
{6}
20 км ясно +27.8 +16.8 51 +31 +31 душно 1008.8 998.4 +35.7
21 16.08 С 1
{5}
20 км ясно +25.0 +16.8 60 +29 +29 душно 1009.8 999.4
00 17.08 С 1
{5}
20 км ясно +23.1 +17.4 70 +28 +28 душно 1009.5 999.1
03 17.08 СЗ 1
{3}
20 км ясно +22.1 +17.3 74 +27 +27 душно 1009.5 999.1
06 17.08 С 2
{4}
20 км 4/4 1200 м
[Cu med, cong]
+25.3 +17.3 61 +29 +33 душно 1010.1 999.6 +22.0
07 17.08 С 2 20 км 4/0
[Ac trans]
+27.4 +17.3 54 +31 +39 душно 1009.9 999.5
08 17.08 С 2 20 км 3/3 1000 м
[Cu med, cong]
+28.6 +17.5 51 +33 +43 очень
душно
1009.9 999.5
09 17.08 С 2
{5}
20 км 4/0
[Ac trans]
+29.9 +17.0 46 +34 +47 очень
душно
1009.6 999.2
10 17.08 С 2 20 км 3/3 1000 м
[Cu med, cong]
+31.0 +15.8 40 +34 +47 душно 1009.1 998.7
11 17.08 С 2 20 км 3/3 1000 м
[Cu med, cong]
+31.1 +14.6 37 +33 +45 душно 1008.9 998.5
12 17.08 С 3
{6}
20 км 3/3 1260 м
[Cu med, cong]
+31.0 +13.6 35 +32 +42 жарко 1008.6 998.2
13 17.08 С 2 20 км 3/3 1000 м
[Cu med, cong]
+31.0 +12.7 33 +32 +39 жарко 1008.3 997.9
14 17.08 С 3 20 км 4/4 1000 м
[Cu med, cong]
+30.2 +12.5 34 +31 +34 жарко 1009.0 998.5
15 17.08 С 3
{9}
н/о +28.5 +13.1 39 +30 +32 жарко 1009.6 999.1
16 17.08 С 3 20 км 1/1 1000 м
[Cu hum]
+26.3 +12.7 43 +28 +28 жарко 1010.0 999.5
17 17.08 С 2 20 км ясно +23.7 +12.3 49 +26 +26 жарко 1010.5 999.9
18 17.08 С 3
{9}
н/о +22.1 +12.7 55 +25 +25 комфорт 1011.6 1001.0 +31.6 41
21 17.08 С 1
{5}
20 км ясно +20.2 +12.2 60 +23 +23 комфорт 1012.1 1001.6
00 18.08 штиль 0
{5}
20 км ясно +19.0 +12.3 65 +20 +20 1012.4 1001.9
03 18.08 С 1
{3}
20 км ясно +18.5 +12.5 68 +21 +21 комфорт 1012.3 1001.7
06 18.08 СЗ 2
{4}
20 км ясно +21.7 +12.8 57 +24 +30 комфорт 1013.6 1002.9 +18.2
07 18.08 С 1 20 км 3/3 1000 м
[Cu hum]
+24.4 +12.3 47 +26 +34 жарко 1013.7 1003.1
08 18.08 С 3 20 км 3/3 1000 м
[Cu hum]
+25.9 +10.0 37 +27 +35 жарко 1013.5 1002.9
09 18.08 С 3
{7}
20 км 3/3 1200 м
[Cu hum]
+27.7 +10.7 35 +28 +39 жарко 1013.1 1002.5
10 18.08 С 2 20 км 3/3 1000 м
[Cu hum]
+29.6 +9.6 29 +29 +42 жарко 1012.2 1001.7
11 18.08 С 3 20 км 3/1 1000 м
[Cu hum Ac trans]
+30.1 +8.4 26 +29 +40 жарко 1011.6 1001.1
12 18.08 С 3
{8}
20 км 3/0
[Ac trans]
+30.8 +9.5 27 +30 +41 жарко 1011.3 1000.8
13 18.08 С 4 20 км 3/0
[Ac trans]
+30.6 +10.4 29 +31 +37 жарко 1011.2 1000.7
14 18.08 С 4 20 км 1/0
[Ac trans]
+29.7 +10.6 31 +30 +34 жарко 1011.2 1000.6
15 18.08 С 3-9
{9}
20 км 1/0
[Ac trans]
+29.2 +10.7 32 +30 +32 жарко 1011.4 1000.8
16 18.08 С 3 20 км ясно +27.7 +9.8 33 +28 +29 жарко 1011.8 1001.2
17 18.08 С 2 20 км ясно +25.8 +9.9 37 +27 +27 жарко 1012.2 1001.6
18 18.08 С 3
{9}
20 км ясно +24.6 +11.5 44 +26 +26 жарко 1012.5 1001.9 +31.2
21 18.08 С 2
{6}
20 км ясно +22.2 +12.5 54 +25 +25 комфорт 1013.7 1003.1
00 19.08 штиль 0
{6}
20 км ясно +19.9 +11.2 57 +21 +21 комфорт 1013.3 1002.8
03 19.08 СЗ 1
{3}
20 км ясно +19.0 +11.1 60 +21 +21 комфорт 1013.2 1002.6
06 19.08 С 1
{3}
20 км ясно +23.7 +10.7 44 +25 +31 комфорт 1013.4 1002.8 +18.4
07 19.08 С 2 20 км ясно +25.7 +9.8 37 +26 +36 жарко 1013.0 1002.4

 

Местоположение метеостанции Акхисар (Турция): широта 38.92 долгота 27.85 высота над уровнем моря 93 м.

В архиве по умолчанию представлена погода в Акхисаре за последнюю неделю. Архивные данные за месяц целиком и за предыдущие месяцы, начиная с января 2011 года, Вы можете получить, выбрав интересующий диапазон дат из раскрывающегося списка и нажав кнопку "Ввод!".


*Определитесь, кто Вы:
робот инопланетянин человек

Внимание! Время в таблицах - всемирное. Для получения местного времени необходимо прибавить поправку, которая равна 2 ч.

Смотрите также архив погоды в соседних городах и на ближайших метеорологических станциях:

Погода в Манисе (Турция) (49 км)
Погода в Балыкесире (Турция) (78 км)
Погода в Измире (Турция) (80 км)
Погода в Измир / Сигли (Турция) (86 км)
Погода в Дикили (Турция) (86 км)
Погода в Измир аэропорту (Турция) (94 км)
Погода в Айвалыке (Турция) (108 км)
Погода в Митилини (Греция) (109 км)
Погода в Айдыне (Турция) (119 км)
Погода в Кушадасы (Турция) (128 км)

Пояснения к столбцам:

Ветер - указаны скорость ветра в м/с - средняя за 10 мин, порывы в срок и между сроками (в фигурных скобках) и направление, откуда дует ветер: С - северный, СВ - северо-восточный, В - восточный, ЮВ - юго-восточный, Ю - южный, ЮЗ - юго-западный, З - западный, СЗ - северо-западный.
Видимость - горизонтальная дальность видимости в метрах или километрах. При видимости от 1 до 10 км при отсутствии осадков обычно наблюдается дымка, при ухудшении видимости до 1 км и менее - туман. В сухую погоду видимость может ухудшаться дымом, пылью или мглою.
Явления - указаны атмосферные явления, наблюдавшиеся в срок или в последний час перед сроком; фигурными скобками обозначены явления, наблюдавшиеся между сроками (за 1-3 часа до срока); квадратными скобками обозначены град или гололедные отложения с указанием их диаметра в мм.
Облачность - указаны через наклонную черту общая и нижняя облачность в баллах и высота нижней границы облаков в метрах; квадратными скобками обозначены формы облаков: Ci - перистые, Cs - перисто-слоистые, Cc - перисто-кучевые, Ac - высококучевые, As - высокослоистые, Sc - слоисто-кучевые, Ns - слоисто-дождевые, Cu - кучевые, Cb - кучево-дождевые. Подробнее классификацию облаков см. в Атласе облаков (PDF).
T - Температура воздуха - температура, измеренная на высоте 2 м над землей.
Td - Температура точки росы - температура, при понижении до которой содержащийся в воздухе водяной пар достигнет насыщения.
f - Относительная влажность воздуха - влажноcть воздуха, измеренная на высоте 2 м над землей.
Te - Эффективная температура - температура, которую ощущает одетый по сезону человек в тени. Характеристика душности погоды. При расчете учитывается влияние влажности воздуха и скорости ветра на теплоощущения человека.
Tes - Эффективная температура на солнце - температура, которую ощущает человек, с поправкой на солнечный нагрев. Характеристика знойности погоды. Зависит от высоты солнца над горизонтом, облачности и скорости ветра. Ночью, в пасмурную погоду, а также при ветре 12 м/с и более поправка равна нулю.
P - Атмосферное давление - приведенное к уровню моря атмосферное давление.
Po - Атмосферное давление - измеренное на уровне метеостанции атмосферное давление.
Tmin - Минимальная температура - минимум температуры воздуха на высоте 2 м над землей.
Tmax - Максимальная температура - максимум температуры воздуха на высоте 2 м над землей.
R - Количество осадков - Количество выпавших осадков за период времени, мм. При наведении курсора мыши на число - период времени, за который выпало указанное количество осадков.
R24 - Количество осадков - Количество выпавших осадков за 24 часа, мм.
S - Снежный покров - Высота снежного покрова, см. При наведении курсора мыши на число - состояние снежного покрова и степень покрытия местности в баллах.